{"data":{"norad_id":64359,"intl_designator":"2025-126R","name":"STARLINK-34291","alt_names":[],"object_type":"PAYLOAD","status":"ACTIVE","operator":null,"country":"US","launch_date":"2025-06-13","launch_site_code":"AFWTR","launch_vehicle":null,"mission":null,"orbit_class":"UNKNOWN","rcs_meters":null,"size_class":null,"mass_kg":null,"dimensions":null,"purposes":["comms"],"wikipedia_slug":null,"has_3d_model":false,"image_url":null,"decayed_at":null,"tle_current":{"epoch":"2026-05-25T03:13:48.899136Z","epoch_age_seconds":62863,"freshness":"FRESH","line1":"1 64359U 25126R   26145.13459374  .00003872  00000+0  33213-3 0  9991","line2":"2 64359  70.0003 201.6614 0003695 269.7975  90.2760 14.98326558 52133","mean_motion":14.98326558,"eccentricity":0.0003695,"inclination_deg":70.0003,"raan_deg":201.6614,"arg_perigee_deg":269.7975,"mean_anomaly_deg":90.276,"bstar":0.00033213,"rev_number":5213,"period_min":96.107219905529,"perigee_km":569.49843485965,"apogee_km":574.63463527207,"semimajor_km":6950.2035350659,"source":"CELESTRAK","updated_at":"2026-05-25T13:38:20.404522Z"}}}